Regional Weather Roundup
Issued by NWS

Home | Current Version | Previous Version | Text Only | Print | Product List | Glossary On
Versions: 1 2 3 4 5 6 7 8 9 10 11 12 13 14 15 16 17 18 19 20 21 22 23 24 25 26 27 28 29 30 31 32 33 34 35 36 37 38 39 40 41 42 43 44 45 46 47 48 49 50
000
ASUS43 KFSD 221302
RWRSD

WEATHER ROUNDUP FOR SOUTH DAKOTA
NATIONAL WEATHER SERVICE SIOUX FALLS SD
800 AM CDT SAT APR 22 2017

NOTE: "FAIR" INDICATES FEW OR NO CLOUDS BELOW 12,000 FEET WITH NO
SIGNIFICANT WEATHER AND/OR OBSTRUCTIONS TO VISIBILITY.


SDZ001>005-009-010-012>017-221400-
NORTHWEST AND NORTH CENTRAL SOUTH DAKOTA

CITY           SKY/WX    TMP DP  RH WIND       PRES   REMARKS
BUFFALO          N/A     38  34  85 W3        30.16R
FAITH            N/A     38  36  92 S12       30.24S
MOBRIDGE       SUNNY     42  38  85 CALM      30.25R
$$

SDZ012>016-024>037-041>051-057-063-072>074-221400-
SOUTHWEST AND SOUTH CENTRAL SOUTH DAKOTA

CITY           SKY/WX    TMP DP  RH WIND       PRES   REMARKS
RAPID CTY ARPT SUNNY     35  31  85 CALM      30.26R
PIERRE         SUNNY     40  35  83 SW3       30.27R
CUSTER         CLEAR     34  32  92 NW3       30.25R
ELLSWORTH AFB  SUNNY     37  35  90 CALM      30.25R
PHILIP         SUNNY     37  34  89 CALM      30.29R
PINE RIDGE     SUNNY     38  34  85 W5        30.28R
SPEARFISH      FAIR      39  34  81 CALM      30.26R
WINNER         FAIR      42  37  82 CALM      30.29R
$$

SDZ004>011-016>023-039-040-221400-
NORTHEAST SOUTH DAKOTA

CITY           SKY/WX    TMP DP  RH WIND       PRES   REMARKS
ABERDEEN       SUNNY     40  35  83 CALM      30.28S
WATERTOWN      SUNNY     38  37  97 CALM      30.28R FOG
BROOKINGS      SUNNY     37  35  92 MISG      30.29R
SISSETON         N/A     49  41  74 SW3       30.26R
$$

SDZ017-020-022-023-036>040-048>070-221400-
SOUTHEAST SOUTH DAKOTA

CITY           SKY/WX    TMP DP  RH WIND       PRES   REMARKS
SIOUX FALLS    MOSUNNY   40  38  93 CALM      30.29R
HURON          SUNNY     41  39  93 E3        30.29R
CHAMBERLAIN    SUNNY     41  40  96 SW3       30.29S
MITCHELL       SUNNY     41  39  93 CALM      30.30R
YANKTON        CLOUDY    43  39  87 NW5       30.28S
$$

ABBREVIATIONS USED IN REMARKS
   TC - TEMPERATURE IN CELSIUS
  WCI - WIND CHILL INDEX
   HX - HEAT INDEX
  VSB - VISIBILITY





USA.gov is the U.S. government's official web portal to all federal, state and local government web resources and services.